STPSAT-4

Last updated on Wed Oct 05 2022 00:02:06 GMT+0000 (Coordinated Universal Time)

1 45043U 98067QY 22277.47917140 .99999999 12681-4 19828-3 0 9994 2 45043 51.6025 84.1479 0028154 162.7150 294.4177 16.61757321152834

Satellite not in orbit